NEOSSAT

Last updated on Wed Sep 09 2026 00:03:35 GMT+0000 (Coordinated Universal Time)

1 39089U 13009D 26250.92665633 .00000130 00000+0 59653-4 0 9992 2 39089 98.4224 69.0182 0011083 6.2907 353.8416 14.35851297708610
UTC large
Height (km)
Speed (km/s)
/
Latitude / Longitude
Inclination (degrees)
Orbital Period (minutes)
Azimuth
Elevation
Range (km)
Doppler Factor

Next 0 passes for location: London (51.5072 / 0.1276)

No passes found over London.
NEOSSAT